This is the latest recevied weather packets stored in our database for station/object K1JO. If no packets are shown the sender has not sent any weather packets the latest 1 day(s).
| Time | Temp. | Humidity | Pressure | Rain* | Wind** | Luminosity | Snow |
|---|---|---|---|---|---|---|---|
| 1777982520 | 15° C | 72% | 1004.3 hPa | 0 mm | 0.45 m/s, 110° | 323 W/m² | - |
| 1777982218 | 15° C | 71% | 1004.2 hPa | 0 mm | 0.45 m/s, 182° | 312 W/m² | - |
| 1777981917 | 14.44° C | 71% | 1004.4 hPa | 0 mm | 1.34 m/s, 199° | 283 W/m² | - |
| 1777981614 | 13.89° C | 71% | 1004.5 hPa | 0 mm | 1.79 m/s, 231° | 265 W/m² | - |
| 1777981310 | 13.33° C | 73% | 1004.4 hPa | 0 mm | 0.89 m/s, 125° | 220 W/m² | - |
| 1777981006 | 13.33° C | 74% | 1004.3 hPa | 0 mm | 2.24 m/s, 194° | 223 W/m² | - |
| 1777980703 | 13.33° C | 74% | 1004.2 hPa | 0 mm | 1.34 m/s, 177° | 193 W/m² | - |
| 1777980400 | 13.33° C | 75% | 1004.1 hPa | 0 mm | 0.45 m/s, 217° | 173 W/m² | - |
| 1777980098 | 12.78° C | 77% | 1004.1 hPa | 0 mm | 0.89 m/s, 114° | 124 W/m² | - |
| 1777979791 | 12.22° C | 77% | 1004.2 hPa | 0 mm | 1.34 m/s, 282° | 133 W/m² | - |
| 1777979487 | 11.67° C | 81% | 1004.2 hPa | 0 mm | 0.45 m/s, 282° | 118 W/m² | - |
| 1777979183 | 11.11° C | 84% | 1004.2 hPa | 0 mm | 0 m/s | 98 W/m² | - |
| 1777978881 | 10° C | 93% | 1004 hPa | 0 mm | 0 m/s | 94 W/m² | - |
| 1777978577 | 9.44° C | 99% | 1004.1 hPa | 0 mm | 0 m/s | 93 W/m² | - |
| 1777978273 | 8.89° C | 99% | 1004 hPa | 0 mm | 0 m/s | 90 W/m² | - |
| 1777977970 | 7.78° C | 99% | 1004.1 hPa | 0 mm | 0 m/s | 73 W/m² | - |
| 1777977668 | 7.22° C | 99% | 1004.1 hPa | 0 mm | 0 m/s | 47 W/m² | - |
| 1777977364 | 6.67° C | 99% | 1004.1 hPa | 0 mm | 0 m/s | 38 W/m² | - |
| 1777977062 | 6.67° C | 99% | 1004.1 hPa | 0 mm | 0 m/s | 33 W/m² | - |
| 1777976759 | 6.67° C | 99% | 1004.3 hPa | 0 mm | 0 m/s | 33 W/m² | - |
| 1777976457 | 6.11° C | 99% | 1004.1 hPa | 0 mm | 0 m/s | 37 W/m² | - |
| 1777976155 | 5.56° C | 99% | 1004 hPa | 0 mm | 0 m/s | 34 W/m² | - |
| 1777975851 | 5° C | 99% | 1004.2 hPa | 0 mm | 0 m/s | 30 W/m² | - |
| 1777975547 | 5° C | 99% | 1004.3 hPa | 0 mm | 0 m/s | 24 W/m² | - |
| 1777975244 | 5° C | 99% | 1004.1 hPa | 0 mm | 0 m/s | 21 W/m² | - |
* Rain latest hour (hover to see other rain measurements)
** Current wind speed in m/s (hover to see current wind gust speed)